When you browse on this site, cookies collect data to enhance your experience and personalize the content and advertising you see.
Visit our Privacy Policy to learn more. By continuing to use the site, you agree to this use of cookies and data.
  • In Romania
  • List of Countries
  • For 7 days
  • Water Temperature
  • Satellite Maps
  • Weather Map
  • Weather Widgets
  • user-avatar
    Login

    Hourly Weather Rawson

    Today, 22 March, Friday

    Time Temperature Precipitation Wind Pressure Humidity
    00:00 +19°C° 0 mm 5 mps 757 mmHg 42%
    01:00 +18°C° 0 mm 4 mps 757 mmHg 41%
    02:00 +18°C° 0 mm 4 mps 757 mmHg 42%
    03:00 +18°C° 0 mm 4 mps 757 mmHg 44%
    04:00 +17°C° 0 mm 4 mps 757 mmHg 46%
    05:00 +17°C° 0 mm 4 mps 757 mmHg 48%
    06:00 +17°C° 0 mm 5 mps 757 mmHg 50%
    07:00 +17°C° 0 mm 5 mps 757 mmHg 51%
    08:00 +17°C° 0 mm 5 mps 758 mmHg 53%
    09:00 +20°C° 0 mm 5 mps 758 mmHg 48%
    10:00 +21°C° 0 mm 5 mps 758 mmHg 44%
    11:00 +23°C° 0 mm 5 mps 758 mmHg 39%
    12:00 +23°C° 0 mm 5 mps 757 mmHg 38%
    13:00 +25°C° 0 mm 5 mps 757 mmHg 37%
    14:00 +26°C° 0 mm 5 mps 757 mmHg 36%
    15:00 +26°C° 0 mm 5 mps 756 mmHg 35%
    16:00 +26°C° 0 mm 5 mps 756 mmHg 35%
    17:00 +26°C° 0 mm 5 mps 756 mmHg 35%
    18:00 +25°C° 0 mm 4 mps 755 mmHg 38%
    19:00 +24°C° 0 mm 3 mps 755 mmHg 41%
    20:00 +23°C° 0 mm 1 mps 755 mmHg 44%
    21:00 +23°C° 0 mm 2 mps 755 mmHg 45%
    22:00 +22°C° 0 mm 3 mps 755 mmHg 46%
    23:00 +22°C° 0 mm 4 mps 755 mmHg 47%

    Tomorrow, 23 March, Saturday

    Time Temperature Precipitation Wind Pressure Humidity
    00:00 +21°C° 0 mm 4 mps 754 mmHg 50%
    01:00 +21°C° 0 mm 4 mps 754 mmHg 53%
    02:00 +20°C° 0 mm 4 mps 754 mmHg 56%
    03:00 +20°C° 0.3 mm 6 mps 754 mmHg 60%
    04:00 +18°C° 0.3 mm 7 mps 754 mmHg 64%
    05:00 +17°C° 0.3 mm 9 mps 754 mmHg 67%
    06:00 +17°C° 0.2 mm 8 mps 754 mmHg 64%
    07:00 +18°C° 0.2 mm 8 mps 754 mmHg 61%
    08:00 +18°C° 0.2 mm 7 mps 755 mmHg 58%
    09:00 +20°C° 0 mm 8 mps 755 mmHg 52%
    10:00 +19°C° 0 mm 9 mps 755 mmHg 46%
    11:00 +21°C° 0 mm 11 mps 755 mmHg 39%
    12:00 +21°C° 0.1 mm 10 mps 755 mmHg 41%
    13:00 +21°C° 0.1 mm 10 mps 756 mmHg 42%
    14:00 +21°C° 0.1 mm 10 mps 756 mmHg 44%
    15:00 +19°C° 0.4 mm 11 mps 756 mmHg 50%
    16:00 +18°C° 0.4 mm 12 mps 757 mmHg 56%
    17:00 +17°C° 0.4 mm 12 mps 757 mmHg 62%
    18:00 +17°C° 0 mm 12 mps 758 mmHg 63%
    19:00 +16°C° 0 mm 11 mps 759 mmHg 64%
    20:00 +14°C° 0 mm 10 mps 760 mmHg 65%
    21:00 +14°C° 0 mm 10 mps 761 mmHg 67%
    22:00 +15°C° 0 mm 9 mps 761 mmHg 69%
    23:00 +13°C° 0 mm 8 mps 762 mmHg 71%

    Day after tomorrow, 24 March, Sunday

    Time Temperature Precipitation Wind Pressure Humidity
    00:00 +13°C° 0 mm 8 mps 762 mmHg 73%
    01:00 +14°C° 0 mm 7 mps 763 mmHg 74%
    02:00 +14°C° 0 mm 7 mps 763 mmHg 76%
    03:00 +13°C° 0 mm 6 mps 763 mmHg 78%
    04:00 +13°C° 0 mm 6 mps 763 mmHg 79%
    05:00 +13°C° 0 mm 5 mps 764 mmHg 81%
    06:00 +13°C° 0 mm 5 mps 764 mmHg 80%
    07:00 +13°C° 0 mm 5 mps 764 mmHg 79%
    08:00 +14°C° 0 mm 5 mps 764 mmHg 78%
    09:00 +14°C° 0 mm 5 mps 764 mmHg 73%
    10:00 +15°C° 0 mm 5 mps 765 mmHg 68%
    11:00 +16°C° 0 mm 5 mps 765 mmHg 63%
    12:00 +16°C° 0 mm 5 mps 765 mmHg 62%
    13:00 +17°C° 0 mm 4 mps 765 mmHg 61%
    14:00 +17°C° 0 mm 4 mps 765 mmHg 60%
    15:00 +17°C° 0 mm 4 mps 765 mmHg 61%
    16:00 +17°C° 0 mm 4 mps 764 mmHg 62%
    17:00 +15°C° 0 mm 4 mps 764 mmHg 63%
    18:00 +15°C° 0 mm 5 mps 765 mmHg 67%
    19:00 +14°C° 0 mm 5 mps 765 mmHg 70%
    20:00 +13°C° 0 mm 5 mps 765 mmHg 74%
    21:00 +13°C° 0 mm 4 mps 766 mmHg 74%
    22:00 +13°C° 0 mm 4 mps 766 mmHg 74%
    23:00 +13°C° 0 mm 4 mps 766 mmHg 74%

    25 March, Monday

    Time Temperature Precipitation Wind Pressure Humidity
    00:00 +13°C° 0 mm 3 mps 766 mmHg 75%
    01:00 +13°C° 0 mm 3 mps 766 mmHg 76%
    02:00 +13°C° 0 mm 3 mps 766 mmHg 77%
    03:00 +12°C° 0 mm 3 mps 766 mmHg 78%
    04:00 +12°C° 0 mm 3 mps 766 mmHg 78%
    05:00 +12°C° 0 mm 3 mps 765 mmHg 79%
    06:00 +12°C° 0 mm 3 mps 766 mmHg 78%
    07:00 +13°C° 0 mm 3 mps 766 mmHg 76%
    08:00 +13°C° 0 mm 3 mps 766 mmHg 74%
    09:00 +14°C° 0 mm 3 mps 767 mmHg 69%
    10:00 +16°C° 0 mm 3 mps 767 mmHg 64%
    11:00 +17°C° 0 mm 3 mps 767 mmHg 59%
    12:00 +18°C° 0 mm 3 mps 767 mmHg 56%
    13:00 +18°C° 0 mm 3 mps 767 mmHg 53%
    14:00 +19°C° 0 mm 4 mps 767 mmHg 51%
    15:00 +18°C° 0 mm 4 mps 768 mmHg 52%
    16:00 +18°C° 0 mm 4 mps 768 mmHg 53%
    17:00 +18°C° 0 mm 4 mps 768 mmHg 54%
    18:00 +17°C° 0 mm 4 mps 768 mmHg 58%
    19:00 +15°C° 0 mm 4 mps 769 mmHg 63%
    20:00 +14°C° 0 mm 4 mps 769 mmHg 67%
    21:00 +14°C° 0 mm 4 mps 770 mmHg 68%
    22:00 +14°C° 0 mm 4 mps 770 mmHg 68%
    23:00 +14°C° 0 mm 3 mps 771 mmHg 69%

    26 March, Tuesday

    Time Temperature Precipitation Wind Pressure Humidity
    00:00 +13°C° 0 mm 3 mps 771 mmHg 69%
    01:00 +13°C° 0 mm 3 mps 771 mmHg 69%
    02:00 +14°C° 0 mm 2 mps 771 mmHg 70%
    03:00 +13°C° 0 mm 3 mps 771 mmHg 70%
    04:00 +13°C° 0 mm 3 mps 771 mmHg 71%
    05:00 +12°C° 0 mm 3 mps 771 mmHg 71%
    06:00 +13°C° 0 mm 3 mps 771 mmHg 69%
    07:00 +13°C° 0 mm 4 mps 771 mmHg 67%
    08:00 +13°C° 0 mm 4 mps 771 mmHg 66%
    09:00 +15°C° 0 mm 4 mps 771 mmHg 60%
    10:00 +16°C° 0 mm 5 mps 771 mmHg 54%
    11:00 +17°C° 0 mm 5 mps 771 mmHg 48%
    12:00 +19°C° 0 mm 5 mps 771 mmHg 45%
    13:00 +20°C° 0 mm 6 mps 770 mmHg 42%
    14:00 +20°C° 0 mm 6 mps 770 mmHg 39%
    15:00 +20°C° 0 mm 7 mps 769 mmHg 42%
    16:00 +20°C° 0 mm 7 mps 769 mmHg 44%
    17:00 +18°C° 0 mm 8 mps 769 mmHg 46%
    18:00 +17°C° 0 mm 8 mps 769 mmHg 51%
    19:00 +16°C° 0 mm 8 mps 769 mmHg 55%
    20:00 +15°C° 0 mm 8 mps 769 mmHg 59%
    21:00 +15°C° 0 mm 9 mps 769 mmHg 62%
    22:00 +15°C° 0 mm 9 mps 769 mmHg 64%
    23:00 +15°C° 0 mm 9 mps 769 mmHg 67%

    27 March, Wednesday

    Time Temperature Precipitation Wind Pressure Humidity
    00:00 +15°C° 0 mm 9 mps 768 mmHg 67%
    01:00 +15°C° 0 mm 9 mps 768 mmHg 66%
    02:00 +15°C° 0 mm 9 mps 768 mmHg 65%
    03:00 +13°C° 0 mm 9 mps 768 mmHg 65%
    04:00 +13°C° 0 mm 9 mps 767 mmHg 66%
    05:00 +13°C° 0 mm 9 mps 767 mmHg 66%
    06:00 +13°C° 0 mm 10 mps 767 mmHg 64%
    07:00 +13°C° 0 mm 10 mps 766 mmHg 63%
    08:00 +13°C° 0 mm 10 mps 766 mmHg 61%
    09:00 +16°C° 0 mm 10 mps 766 mmHg 55%
    10:00 +17°C° 0 mm 11 mps 765 mmHg 49%
    11:00 +19°C° 0 mm 11 mps 765 mmHg 42%
    12:00 +21°C° 0 mm 11 mps 764 mmHg 39%
    13:00 +22°C° 0 mm 11 mps 763 mmHg 36%
    14:00 +23°C° 0 mm 12 mps 762 mmHg 32%
    15:00 +23°C° 0 mm 12 mps 761 mmHg 32%
    16:00 +23°C° 0 mm 12 mps 760 mmHg 33%
    17:00 +23°C° 0 mm 12 mps 760 mmHg 33%
    18:00 +22°C° 0 mm 12 mps 760 mmHg 36%
    19:00 +22°C° 0 mm 12 mps 759 mmHg 39%
    20:00 +21°C° 0 mm 12 mps 759 mmHg 43%
    21:00 +21°C° 0 mm 12 mps 759 mmHg 43%
    22:00 +21°C° 0 mm 11 mps 759 mmHg 44%
    23:00 +21°C° 0 mm 11 mps 759 mmHg 45%
    Show more